Regional Weather Roundup
Issued by NWS

Home | Current Version | Previous Version | Graphics & Text | Print | Product List | Glossary On
Versions: 1 2 3 4 5 6 7 8 9 10 11 12 13 14 15 16 17 18 19 20 21 22 23 24 25 26 27 28 29 30 31 32 33 34 35 36 37 38 39 40 41 42 43 44 45 46 47 48 49 50
000
ASUS43 KMPX 230801
RWRMN
WEATHER ROUNDUP FOR MINNESOTA
NATIONAL WEATHER SERVICE TWIN CITIES/CHANHASSEN MN
200 AM CST MON JAN 23 2017


NOTE: "FAIR" INDICATES FEW OR NO CLOUDS BELOW 12,000 FEET WITH NO
SIGNIFICANT WEATHER AND/OR OBSTRUCTIONS TO VISIBILITY. N/A MEANS
CURRENT SKY AND/OR WEATHER CONDITIONS ARE NOT AVAILABLE.

MNZ060>063-068>070-230900-
   Twin Cities Metro

CITY           SKY/WX    TMP DP  RH WIND       PRES   REMARKS
TWIN CITIES    DRIZZLE   34  32  92 W3        29.81R FOG
ST PAUL        CLOUDY    34  34 100 W3        29.82R FOG
CRYSTAL        CLOUDY    34  31  88 W3        29.79R FOG
BLAINE         CLOUDY    36  36 100 W3        29.80R FOG
LAKEVILLE      CLOUDY    30  30 100 W8        29.80R FOG     WCI  23
EDEN PRAIRIE   CLOUDY    33  32  96 W3        29.80R FOG
SOUTH ST PAUL  CLOUDY    34  34  99 NW3       29.80R FOG
LAKE ELMO      CLOUDY    34  34 100 W5        29.80R FOG     WCI  30
$$
MNZ001>005-007-008-013>017-022>024-027-028-230900-
   Northwest Minnesota

CITY           SKY/WX    TMP DP  RH WIND       PRES   REMARKS
BEMIDJI        CLOUDY    31  31  99 W7        29.75R FOG     WCI  24
HALLOCK        CLOUDY    32  30  93 SW3       29.75R
ROSEAU         FOG       34  28  80 CALM      29.73F VSB 3/4
WARROAD        LGT SNOW  32  28  86 SW5       29.74R WCI  27
THIEF RVR FALL MOCLDY    31  29  92 SW7       29.76S WCI  24
CROOKSTON      CLOUDY    32  30  93 W6        29.78S WCI  26
FOSSTON        CLOUDY    28  28 100 SW5       29.76F FOG     WCI  23
DETROIT LAKES  CLOUDY    32  30  93 W6        29.78S FOG     WCI  26
MOORHEAD       CLOUDY    30  28  93 W3        29.81S
PARK RAPIDS    CLOUDY    32  27  81 W9        29.75S WCI  24
MAHNOMEN       CLOUDY    30  30  98 W7        29.77R WCI  23
$$
MNZ006-009>011-018-025>026-230900-
   North Central Minnesota

CITY           SKY/WX    TMP DP  RH WIND       PRES   REMARKS
BAUDETTE       CLOUDY    33  32  96 W3        29.72F
FLAG ISLAND    FOG       32  32 100 CALM      29.72S VSB 1/2
INTL FALLS     FOG       34  33  96 W3        29.73R VSB 1
WASKISH        CLOUDY    32  32 100 W7        29.74F FOG     WCI  26
BIG FORK       FLURRIES  34  34 100 CALM      29.74R
LONGVILLE      CLOUDY    32  32 100 W5        29.74F FOG     WCI  27
GRAND RAPIDS   MIX PCPN  34  33  96 NW5       29.75S FOG     WCI  30
CRANE LAKE     FOG       30  30 100 CALM      29.74S VSB 1/4
ORR            CLOUDY    32  30  93 CALM      29.70S FOG
COOK           CLOUDY    32  32 100 CALM      29.72F FOG
WALKER         CLOUDY    31  31  99 W5        29.75R WCI  27
$$
MNZ012-019>021-037-230900-
   Northeast Minnesota

CITY           SKY/WX    TMP DP  RH WIND       PRES   REMARKS
DULUTH         FOG       35  34  96 NW6       29.71R VSB 3/4 WCI  30
ELY            FOG       32  32 100 CALM      29.70S VSB 3/4
HIBBING        CLOUDY    33  33 100 NW5       29.72S FOG     WCI  29
EVELETH        FOG       34  33  98 CALM      29.72F VSB 1
DULUTH HARBOR  CLOUDY    36  34  93 W7        29.75R
TWO HARBORS    CLOUDY    37  34  87 CALM      29.70R
SILVER BAY     CLOUDY    34  34 100 CALM      29.70R
GRAND MARAIS     N/A     35  32  88 CALM      29.73R
G MARAIS ARPRT CLOUDY    30  27  86 CALM      29.69R
$$
MNZ029>031-032-039>041-046>048-054>057-064-230900-
   West Central Minnesota

CITY           SKY/WX    TMP DP  RH WIND       PRES   REMARKS
FERGUS FALLS   CLOUDY    30  30 100 NW6       29.84S WCI  24
WHEATON        CLOUDY    39  39 100 W9        29.84S
MORRIS         CLOUDY    32  30  93 NW8       29.80S WCI  25
ALEXANDRIA     CLOUDY    30  28  92 NW9       29.78F WCI  22
ELBOW LAKE     CLOUDY    31  31  99 NW7       29.81S FOG     WCI  24
WADENA         CLOUDY    30  30 100 W3        29.77R FOG
GLENWOOD       CLOUDY    30  28  93 W10       29.79S WCI  21
APPLETON       CLOUDY    34  30  86 NW6       29.82S WCI  29
ORTONVILLE     CLOUDY    34  28  80 CALM      29.83S
MADISON        CLOUDY    36  34  93 NW8       29.83S
WILLMAR        CLOUDY    34  34 100 CALM      29.82R FOG
$$
MNZ033>034-036-042>043-049>051-058-059-230900-
   Central Minnesota

CITY           SKY/WX    TMP DP  RH WIND       PRES   REMARKS
ST CLOUD       CLOUDY    32  32 100 W8        29.78R FOG     WCI  25
SAUK CENTRE    CLOUDY    31  29  92 W7        29.79S WCI  24
PAYNESVILLE    CLOUDY    32  32 100 NW7       29.79S FOG     WCI  26
AITKIN         CLOUDY    36  32  87 W3        29.74S FOG
PINE RIVER     CLOUDY    32  32 100 W3        29.79S FOG
BRAINERD       CLOUDY    32  32 100 W3        29.76S FOG
STAPLES        CLOUDY    30  30 100 W6        29.77R FOG     WCI  24
LONG PRAIRIE   CLOUDY    32  30  93 CALM      29.78S FOG
LITTLE FALLS   CLOUDY    32  30  93 W6        29.78R FOG     WCI  26
LITCHFIELD     CLOUDY    34  34 100 W5        29.80S FOG     WCI  30
BUFFALO        CLOUDY    32  32  98 W3        29.81R FOG
MAPLE LAKE     CLOUDY    34  33  99 W5        29.81R FOG     WCI  29
HUTCHINSON     CLOUDY    33  33  99 W8        29.82R FOG     WCI  26
$$
MNZ037-044-045-052-053-230900-
   East Central Minnesota

CITY           SKY/WX    TMP DP  RH WIND       PRES   REMARKS
PRINCETON      CLOUDY    34  34 100 W3        29.78R FOG
MORA           CLOUDY    34  32  93 W3        29.79R FOG
CAMBRIDGE      MIX PCPN  36  36 100 W5        29.77R
RUSH CITY      CLOUDY    34  32  93 W5        29.77R FOG     WCI  30
MOOSE LAKE     CLOUDY    34  34 100 CALM      29.73R
HINCKLEY       CLOUDY    34  34 100 NW3       29.76R FOG
CLOQUET        CLOUDY    36  34  93 W6        29.72S
MCGREGOR       CLOUDY    34  34 100 CALM      29.75R
$$
MNZ071>073-080-081-089-090-097-098-230900-
   Southwest Minnesota

CITY           SKY/WX    TMP DP  RH WIND       PRES   REMARKS
MONTEVIDEO     CLOUDY    34  34 100 N6        29.84R WCI  29
GRANITE FALLS  CLOUDY    34  32  93 W8        29.84R WCI  27
CANBY          CLOUDY    34  30  85 W10       29.85R WCI  26
MARSHALL       CLOUDY    33  30  88 NW10      29.83S WCI  25
REDWOOD FALLS  CLOUDY    33  29  85 W8        29.81S WCI  26
OLIVIA         MOCLDY    32  30  93 W7        29.81R WCI  26
PIPESTONE      CLOUDY    32  28  86 NW8       29.82S WCI  25
WINDOM         CLOUDY    32  30  93 W5        29.83R WCI  27
WORTHINGTON    CLOUDY    31  28  89 NW10      29.83R WCI  22
JACKSON        CLOUDY    32  28  86 NW7       29.84R WCI  26
TRACY          CLOUDY    33  31  92 NW6       29.82S WCI  28
SLAYTON        CLOUDY    31  29  90 NW10      29.82S WCI  22
$$
MNZ065>067-074>077-082>085-091>093-230900-
   South Central Minnesota

CITY           SKY/WX    TMP DP  RH WIND       PRES   REMARKS
MANKATO        CLOUDY    32  30  92 W6        29.82S WCI  26
NEW ULM        CLOUDY    32  30  93 W7        29.83R WCI  26
ST JAMES       CLOUDY    32  30  93 W8        29.84S WCI  25
FAIRMONT       CLOUDY    32  29  88 NW7       29.84S WCI  26
GLENCOE        CLOUDY    33  34 100 W3        29.81R FOG
OWATONNA       CLOUDY    32  30  93 W6        29.82R FOG     WCI  26
WASECA         CLOUDY    32  32 100 W7        29.83S FOG     WCI  26
ALBERT LEA     CLOUDY    32  32 100 W6        29.82R FOG     WCI  26
$$
MNZ078>079-086>088-094>096-230900-
   Southeast Minnesota

CITY           SKY/WX    TMP DP  RH WIND       PRES   REMARKS
ROCHESTER      CLOUDY    32  32 100 W8        29.80R FOG     WCI  25
RED WING       CLOUDY    34  32  93 W5        29.80R FOG     WCI  30
STANTON        CLOUDY    33  32  95 W5        29.80R FOG     WCI  29
DODGE CENTER   CLOUDY    30  30 100 CALM      29.80R FOG
WINONA         CLOUDY    34  34 100 NW3       29.80R
AUSTIN         CLOUDY    32  30  93 W9        29.82R FOG     WCI  24
PRESTON        CLOUDY    32  31  96 W12       29.79R FOG     WCI  23
$$
ABBREVIATIONS USED IN REMARKS
   TC - TEMPERATURES IN CELSIUS
  WCI - WIND CHILL INDEX
   HX - HEAT INDEX
  VSB - VISIBILITY
$$



USA.gov is the U.S. government's official web portal to all federal, state and local government web resources and services.